Home   Weather   Woodbridge Park   Past weeks
Flag for USA

Past Weather in Woodbridge Park, California, USA — Yesterday and Last 2 Weeks

Now
69 °F

Clear.


Feels Like: 69 °F
Forecast: 85 / 62 °F
Wind: No wind

Location: Los Angeles / USC Campus Downtown

Current Time: Oct 15, 2019 at 9:49:11 pm

Latest Report: Oct 15, 2019 at 8:52 pm


Visibility: 10 mi

Pressure: 29.92 "Hg

Humidity: 68%

Dew Point: 58 °F

Location of Woodbridge ParkLocation

Past Weather in Woodbridge Park — Graph

°F

Woodbridge Park Temperature Yesterday

Maximum temperature yesterday: 75 °F (at 12:52 pm)
Minimum temperature yesterday: 63 °F (at 12:52 am)
Average temperature yesterday: 68 °F

High & Low Weather Summary for the Past Weeks

 TemperatureHumidityPressure
High89 °F (Oct 11, 2:52 pm)84% (Oct 8, 11:52 pm)30.03 "Hg (Oct 8, 11:52 pm)
Low57 °F (Oct 11, 5:52 am)4% (Oct 11, 12:52 pm)29.78 "Hg (Oct 9, 4:52 pm)
Average69 °F57%29.90 "Hg
* Reported Sep 30 8:52 pm — Oct 15 8:52 pm, Woodbridge Park. Weather by CustomWeather, © 2019

Note: Actual official high and low records may vary slightly from our data, if they occured in-between our weather recording intervals... More about our weather records

Advertising

Woodbridge Park Weather History for the Previous 24 Hours

Scroll right to see more
 ConditionsComfort  
Time TempWeatherWind HumidityBarometerVisibility
8:52 pm
Tue, Oct 15
69 °FClear.No wind68%29.92 "Hg10 mi
7:52 pm69 °FClear.No wind68%29.91 "Hg10 mi
6:52 pm72 °FClear.3 mph61%29.91 "Hg10 mi
5:52 pm74 °FSunny.6 mph57%29.90 "Hg10 mi
3:52 pm80 °FSunny.6 mph44%29.90 "Hg10 mi
2:52 pm83 °FSunny.3 mph38%29.91 "Hg10 mi
1:52 pm82 °FSunny.5 mph38%29.93 "Hg10 mi
12:52 pm79 °FSunny.3 mph41%29.97 "Hg10 mi
11:52 am77 °FSunny.No wind47%29.99 "Hg7 mi
10:52 am77 °FSunny.3 mph45%30.00 "Hg7 mi
9:52 am72 °FSunny.No wind49%30.01 "Hg7 mi
8:52 am67 °FSunny.No wind59%30.01 "Hg8 mi
7:52 am62 °FSunny.3 mph70%29.99 "Hg8 mi
6:52 am60 °FClear.No wind75%29.98 "Hg7 mi
5:52 am60 °FClear.No wind78%29.98 "Hg9 mi
4:52 am61 °FClear.No wind78%29.96 "Hg7 mi
3:52 am61 °FClear.No wind81%29.96 "Hg7 mi
2:52 am61 °FClear.No wind83%29.96 "Hg7 mi
1:52 am62 °FClear.No wind80%29.97 "Hg9 mi
12:52 am63 °FClear.No wind81%29.96 "Hg10 mi
11:52 pm
Mon, Oct 14
64 °FClear.No wind78%29.96 "Hg9 mi
10:52 pm65 °FClear.No wind76%29.96 "Hg10 mi
9:52 pm65 °FClear.No wind76%29.95 "Hg10 mi
Weather by CustomWeather, © 2019

See weather overview